User: anonymous
Location: Unspecified
(0.0000°N, 0.0000°E)
Time: 06:32:26
(UTC+02:00)
Language:

Cosmos 2219 - Orbit

View from above orbital plane
View from above orbital plane
View from above satellite
View from above satellite

Ground track
Ground track

The orbit data is extracted from the following two-line orbital elements,

1 22219U 92076A   14110.41469216 -.00000033  00000-0  71999-5 0  4857
2 22219 071.0614 087.5937 0019513 343.6087 173.4573 14.13489293105174
Epoch (UTC): 20 April 2014 09:57:09
Eccentricity: 0.0019513
inclination: 71.0614°
perigee height: 833 km
apogee height: 861 km
right ascension of ascending node: 87.5937°
argument of perigee: 343.6087°
revolutions per day: 14.13489293
mean anomaly at epoch: 173.4573°
orbit number at epoch: 10517

The dashed part of the orbit path shows where the satellite is in the earth's shadow,  

DLR